Погода в Лимбах-Оберфроне

Германия     50°51′30″N   12°46′03″E
темп.,
°C
ветер,
м/с
пор.,
м/с
влажн.,
%
обл.,
%
осадки,
мм/ч
давл.,
гПа
погр.,
м
27 октября, ср
ср2723:00+8юз41093100 0.0 1025236
02:00+8юз51190100 0.0 1024319
05:00+7юз51190100 0.0 1025294
08:00+7юз51190100 0.0 1026279
11:00+11юз577496 0.0 1026366
14:00+14зюз5667100 0.0 1024708
17:00+11юз367984 0.0 1024208
20:00+8ююз229035 0.0 102519
28 октября, чт
чт2823:00+7ю22875 0.0 102511
02:00+7ююв22835 0.0 102414
05:00+6ююв218016 0.0 102313
08:00+6ююв22775 0.0 102316
11:00+13ююв24575 0.0 1021249
14:00+16ююв24405 0.0 1019641
17:00+12ююв346318 0.0 101867
20:00+7ююв32785 0.0 101925
29 октября, пт
пт2923:00+6ююв33795 0.0 101828
02:00+6ююв22765 0.0 101724
05:00+6ююв22755 0.0 101620
08:00+5ююв227355 0.0 101616
11:00+12ююв23535 0.0 1014175
14:00+16юв224244 0.0 1012489
17:00+11ююв356284 0.0 101294
20:00+7ю337243 0.0 101334
30 октября, сб
сб3023:00+6ююв336977 0.0 101436
02:00+7ю3369100 0.0 101530
05:00+8ю2367100 0.0 101528
08:00+9ююв2266100 0.0 101525
11:00+13ю2362100 0.0 1016105
14:00+17юз125198 0.0 1015505
17:00+13юв3567100 0.0 101586
20:00+8юв347287 0.0 101666
31 октября, вс
вс3123:00+8юв3570100 0.0 101480
02:00+7ююв2271100 0.0 101234
04:00+7ю227289 0.0 101027
07:00+6ююв2274100 0.0 100826
10:00+12ю3860100 0.0 1006281
13:00+15юз5125248 0.0 1005775
16:00+13ю5146280 0.0 1004558
19:00+13ю71655100 0.0 1003550